HJS-6C

导读

HJS-6C卫星是由中国独立自主研发的通信卫星,于2025年4月1日成功发射入轨。该卫星采用成熟可靠的国产卫星平台,搭载了先进的转发器载荷,主要服务于广播电视传输与通信保障领域,可支持4K/8K超高清业务传输,覆盖中国及周边区域。它的成功入轨进一步完善了中国空间通信网络布局,为智慧广电建设和区域通信安全提供了坚实支撑,助力我国卫星通信服务能力稳步提升。

Basic Information
目录编号:
63430
目录名称:
HJS-6C
国际标识:
2025-067C
轨道中心:
EARTH
卫星名称:
HJS-6C
卫星全名:
HJS-6C
卫星状态:
在轨 (已飞行521 天)
发射日期:
2025-04-01 UTC
国别 :
中国 (CN)
星等 :
--
Orbit Information
数据来源 国际轨道数据 AOE轨道数据
星历时间 2026-09-04T02:15:09+0800
22小时前
查看轨道信息
2026-09-03T18:00:00+0800
1天前
查看轨道信息
半长轴 6886.153km 6886.202km
偏心率 0.0009024 0.0008841
轨道倾角 54.997° 54.998°
近地点辐角 147.835° 146.052°
升交点赤经 44.335° 45.841°
平近点角 212.322° 132.563°
近地点 501.801km 501.976km
远地点 514.231km 514.154km
周期 94.782分钟 94.783分钟
每日圈数 15.192801 15.192637
Detailed Information
使用方式:
暂无
2D Orbit Map
3D Orbit Map
Orbit Altitude Analysis Chart
Orbit Inclination Analysis Chart
Orbit Comprehensive Analysis Chart
View Comprehensive Chart
Conjunction Data List
Event ID Objects TCA Miss Dist (km) Collision Risk Probability Collision Risk Index (CRI) Action
CDM_260903-180406-343006-843323
HJS-6C (63430)
2026-09-03T
18:04:52+0000
1.853 km
极远距离
3.476241E-6 低风险 0.46
CDM_260905-052505-334606-343022
OBJECT A (53346)
HJS-6C (63430)
2026-09-05T
05:25:33+0000
2.069 km
极远距离
2.146865E-6 低风险 0.42
CDM_260901-110105-305506-343021
HJS-6C (63430)
2026-09-01T
11:01:32+0000
2.038 km
极远距离
1.488342E-6 低风险 0.38